STARLINK-35300, 65800

Orbit data source: Space-Track

STARLINK-35300, 65800 is a payload satellite owned by SpaceX/Seattle (US) in SSO that was launched on Fri, 26 Sep 2025 UTC via an FALCON 9 launch vehicle from the Air Force Western Test Range (AFWTR). Payload-class satellites include a variety of spacecraft equipped with specific instruments for various scientific and technological missions. These include communications satellites like Starlink; space stations such as the ISS; scientific satellites like the Hubble; Earth observation satellites from companies like Planet Labs, Umbra, and HawkEye 360; GPS; miniature CubeSats for education and research; and military/defense satellites.

Loading next visibility...
Identifier
65800, 2025-218K
Orbit
SSO
Country
Flag of USUS
Related business
Manufacturer
SpaceX/Seattle
Mission
Operational Commercial Communications
Bus & Motor
STARLINK V2MO, Unknown motor
Mass
575 kg wet, ~530 kg dry
Launch date (UTC)
2025-09-26 (5 months ago)
Launch vehicle
FALCON 9
Launch site
Air Force Western Test Range (AFWTR)
Object type
Payload
Rocket body
Debris
Shape & HBR
Box + 2 Pan, 17.7 m
Radar Cross Section
36.964 m²

Expand to show TLE details & history
Last TLE update: 9 hours ago

TLE from 9 hours ago
0 STARLINK-35300
1 65800U 25218K   26062.49458801  .00004695  00000-0  32929-3 0  9994
2 65800  97.6021 286.7885 0002048  83.0132 277.1328 15.05658519 24035
Epoch: 2026-03-03T11:52Z
TLE epoch observation values (Epoch: 2026-03-03T11:52:12.404Z)
Latitude
0.00003°
Longitude
-52.53603°
Altitude
552.374 km
Speed
7.586 km/s
True Right ascension
19h 07m 09s
True Declination
0° 00' 00"
Sunlit
Object was in daylight at epoch
Visualization orbit readout
Latitude
Unknown
Longitude
Unknown
Altitude
Unknown
Speed
Unknown
Apparent Right ascension
Unknown
Apparent Declination
Unknown
Sunlit
N/A
Visualization observer readout
Local Sidereal Time
00:35:40
Azimuth
Unknown
Elevation
Unknown
Doppler factor
Unknown
Orbital elements
Apogee altitude
547.897 km
Perigee altitude
545.06 km
Semi-major axis
6,924.615 km
Eccentricity
0.0002
Inclination
97.6021°
RAAN
286.7885°
Arg. of periapsis
83.0132°
True anomaly
277.10951°
Mean anomaly
277.1328°
Eccentric anomaly
277.12116°
Mean motion
3.7666 °/min
Orbital period
95.58 mins
BSTAR
0.00032929
Loading maneuver chart data...
Computing Atmospheric mass density...
Loading historical data...
Loading historical data...
Loading historical data...
Loading historical data...
Loading historical data...
Loading historical data...
Loading historical data...

Documentation

Showing up to 5 results
|